SCP
0 0 0 0 0 0 0 0 0 0 0 0 0 0 0 0 0 0 0 0 0 0 0 0 0 0 0 0 0 0 0 0 0 0 0 0 0 0 0 0 0 0 0 0
0 0 0 0 0 0 0 0 0 0 0 0 0 0 0 0 0 0 0 0 0 0 0 0 0 0 0 0 0 0 0 0 0 0 0 0 0 0 0 0 0 0 0 0
0 0 0 0 0 0 0 0 0 0 0 0 0 0 0 0 0 0 0 0 0 0 0 0 0 0 0 0 0 0 0 0 0 0 0 0 0 0 0 0 0 0 0 0
0 0 0 0 0 0 0 0 0 0 0 0 0 0 0 0 0 0 0 0 0 0 0 0 0 0 0 0 0 0 0 0 0 0 0 0 0 0 0 0 0 0 0 0
0 0 0 0 0 0 0 0 0 0 0 0 0 0 0 0 0 0 0 0 0 0 0 0 0 0 0 0 0 0 0 0 0 0 0 0 0 0 0 0 0 0 0 0
0 0 0 0 0 0 0 0 0 0 0 0 0 0 0 0 0 0 0 0 0 0 0 0 0 0 0 0 0 0 0 0 0 0 0 0 0 0 0 0 0 0 0 0
0 0 0 0 0 0 0 0 0 0 0 0 0 0 0 0 0 0 0 0 0 0 0 0 0 0 0 0 0 0 0 0 0 0 0 0 0 0 0 0 0 0 0 0
0 0 0 0 0 0 0 0 0 0 0 0 0 0 0 0 0 0 0 0 0 0 0 0 0 0 0 0 0 0 0 0 0 0 0 0 0 0 0 0 0 0 0 0
0 0 0 0 0 0 0 0 0 0 0 0 0 0 0 0 0 0 0 0 0 0 0 0 0 0 0 0 0 0 0 0 0 0 0 0 0 0 0 0 0 0 0 0
0 0 0 0 0 0 0 0 0 0 0 0 0 0 0 0 0 0 0 0 0 0 0 0 0 0 0 0 0 0 0 0 0 0 0 0 0 0 0 0 0 0 0 0
0 0 0 0 0 0 0 0 0 0 0 0 0 0 0 0 0 0 0 0 0 0 0 0 0 0 0 0 0 0 0 0 0 0 0 0 0 0 0 0 0 0 0 0
0 0 0 0 0 0 0 0 0 0 0 0 0 0 0 0 0 0 0 0 0 0 0 0 0 0 0 0 0 0 0 0 0 0 0 0 0 0 0 0 0 0 0 0
0 0 0 0 0 0 0 0 0 0 0 0 0 0 0 0 0 0 0 0 0 0 0 0 0 0 0 0 0 0 0 0 0 0 0 0 0 0 0 0 0 0 0 0
0 0 0 0 0 0 0 0 0 0 0 0 0 0 0 0 0 0 0 0 0 0 0 0 0 0 0 0 0 0 0 0 0 0 0 0 0 0 0 0 0 0 0 0
0 0 0 0 0 0 0 0 0 0 0 0 0 0 0 0 0 0 0 0 0 0 0 0 0 0 0 0 0 0 0 0 0 0 0 0 0 0 0 0 0 0 0 0
0 0 0 0 0 0 0 0 0 0 0 0 0 0 0 0 0 0 0 0 0 0 0 0 0 0 0 0 0 0 0 0 0 0 0 0 0 0 0 0 0 0 0 0
0 0 0 0 0 0 0 0 0 0 0 0 0 0 0 0 0 0 0 0 0 0 0 0 0 0 0 0 0 0 0 0 0 0 0 0 0 0 0 0 0 0 0 0
0 0 0 0 0 0 0 0 0 0 0 0 0 0 0 0 0 0 0 0 0 0 0 0 0 0 0 0 0 0 0 0 0 0 0 0 0 0 0 0 0 0 0 0
0 0 0 0 0 0 0 0 0 0 0 0 0 0 0 0 0 0 0 0 0 0 0 0 0 0 0 0 0 0 0 0 0 0 0 0 0 0 0 0 0 0 0 0
0 0 0 0 0 0 0 0 0 0 0 0 0 0 0 0 0 0 0 0 0 0 0 0 0 0 0 0 0 0 0 0 0 0 0 0 0 0 0 0 0 0 0 0
0 0 0 0 0 0 0 0 0 0 0 0 0 0 0 0 0 0 0 0 0 0 0 0 0 0 0 0 0 0 0 0 0 0 0 0 0 0 0 0 0 0 0 0
0 0 0 0 0 0 0 0 0 0 0 0 0 0 0 0 0 0 0 0 0 0 0 0 0 0 0 0 0 0 0 0 0 0 0 0 0 0 0 0 0 0 0 0
0 0 0 0 0 0 0 0 0 0 0 0 0 0 0 0 0 0 0 0 0 0 0 0 0 0 0 0 0 0 0 0 0 0 0 0 0 0 0 0 0 0 0 0
0 0 0 0 0 0 0 0 0 0 0 0 0 0 0 0 0 0 0 0 0 0 0 0 0 0 0 0 0 0 0 0 0 0 0 0 0 0 0 0 0 0 0 0
0 0 0 0 0 0 0 0 0 0 0 0 0 0 0 0 0 0 0 0 0 0 0 0 0 0 0 0 0 0 0 0 0 0 0 0 0 0 0 0 0 0 0 0
0 0 0 0 0 0 0 0 0 0 0 0 0 0 0 0 0 0 0 0 0 0 0 0 0 0 0 0 0 0 0 0 0 0 0 0 0 0 0 0 0 0 0 0
Wind_Speed
10 10 16 19 17 7 7 8 9 9 6 8 12 14 15 10 8 10 10 11 13 16 16 14 16 16 14 14 16 17 17 15 12 10 10 10 10 8 8 8 10 11 10 10
10 20 18 12 12 9 8 10 9 4 4 7 9 15 14 12 11 12 13 13 14 14 11 11 14 15 17 18 18 18 19 17 15 13 12 8 7 6 7 6 8 11 11 11
19 10 13 12 12 15 15 14 11 5 1 3 3 10 14 13 11 12 12 13 13 15 15 14 15 17 18 19 20 19 20 19 18 14 7 5 4 3 5 8 10 11 12 12
18 9 14 16 17 17 19 12 10 8 5 5 6 9 10 12 14 16 17 14 15 15 15 14 15 16 18 21 19 19 19 19 18 16 12 13 13 14 14 11 10 10 12 13
15 14 18 22 21 18 7 9 9 9 7 5 6 8 10 7 16 17 17 17 18 17 17 17 17 18 19 19 18 18 18 18 18 17 18 17 15 13 8 7 9 11 11 13
8 8 14 13 13 13 6 7 4 4 6 14 16 12 13 11 16 10 13 16 18 18 17 17 15 15 15 15 15 15 17 18 18 19 18 19 19 15 10 11 12 11 10 11
11 9 7 7 12 11 11 10 8 10 12 14 11 12 16 10 10 14 15 16 16 16 16 15 15 14 14 15 16 15 17 18 18 19 20 20 20 18 18 15 14 12 10 11
15 14 16 11 15 16 20 17 13 11 9 6 7 16 13 9 11 11 13 13 12 13 13 14 15 15 15 16 16 17 18 18 18 19 20 19 18 15 13 15 13 13 12 13
13 13 9 12 9 15 17 17 9 3 2 4 8 9 11 6 9 11 12 12 13 13 13 14 13 13 14 15 16 18 18 18 17 18 18 17 18 17 16 15 14 11 11 10
7 7 7 9 6 10 11 11 7 10 10 10 8 10 11 9 13 13 13 14 14 12 11 12 11 12 12 12 13 13 16 17 17 16 16 14 16 17 16 13 14 14 13 11
7 7 6 11 17 19 13 16 11 9 7 9 8 12 10 13 14 15 16 15 14 14 13 12 10 9 9 8 8 10 12 13 13 13 13 13 13 13 13 13 14 14 12 13
9 6 8 13 9 12 13 16 17 14 10 9 8 14 5 11 12 14 15 13 11 11 10 9 8 6 5 7 7 8 9 10 11 10 10 11 11 10 12 13 13 12 12 12
10 9 8 6 6 9 13 14 18 13 7 7 9 14 4 6 8 10 11 11 9 8 7 6 5 6 7 7 7 8 8 9 8 8 9 9 10 10 12 12 11 11 11 11
8 7 10 14 10 12 15 17 18 16 13 14 15 17 10 7 7 8 9 9 8 7 7 6 6 7 7 7 7 7 7 7 6 7 8 9 10 10 10 9 8 9 9 10
6 7 7 8 6 9 12 17 21 22 19 16 18 21 21 13 10 9 8 7 7 8 8 8 8 7 6 6 6 6 7 6 6 7 7 9 7 6 6 6 7 7 7 8
6 5 5 8 9 10 11 16 21 24 22 18 15 20 20 11 7 7 8 8 9 9 9 9 8 8 8 8 8 7 7 7 6 7 8 6 5 5 5 5 5 5 5 6
4 5 6 8 8 6 15 21 23 22 22 22 24 27 14 10 12 12 11 10 11 11 10 9 9 9 9 9 9 9 8 6 7 7 6 5 5 5 5 5 4 5 5 5
6 5 4 4 6 16 12 10 15 20 22 22 22 20 19 16 12 10 10 11 12 11 10 9 9 8 8 7 7 6 5 6 7 7 6 6 6 6 5 5 5 5 4 4
11 8 6 6 9 10 8 8 16 18 22 23 24 24 20 11 6 9 10 11 12 11 10 9 9 8 7 6 6 6 5 6 6 7 7 7 7 7 6 6 6 4 4 4
11 9 7 6 7 12 11 8 7 8 16 16 20 23 19 9 10 16 9 8 10 10 9 9 7 6 6 6 5 6 7 7 9 9 8 7 7 7 7 7 5 3 3 4
8 8 11 10 9 10 9 5 10 12 15 10 12 16 15 15 16 12 5 7 9 10 10 8 7 7 7 6 6 7 7 9 9 6 5 6 6 7 6 5 4 4 4 3
9 8 9 8 9 11 6 8 12 10 5 4 7 10 12 13 12 9 8 8 7 7 7 7 6 6 5 5 7 8 9 7 5 5 6 5 5 5 4 5 5 4 5 5
8 9 7 9 8 5 3 5 4 3 4 4 5 6 8 9 9 9 9 8 7 7 6 5 6 5 4 3 6 8 7 4 5 6 6 5 5 5 5 5 6 5 5 4
4 2 4 5 7 5 4 3 4 5 4 6 5 5 5 6 7 7 6 5 5 5 4 3 4 4 4 2 3 4 3 4 6 6 6 5 6 5 5 4 4 5 5 5
4 3 4 6 5 5 4 4 5 6 6 6 6 4 4 4 5 4 4 4 3 2 2 2 3 4 3 1 1 1 2 5 5 5 5 5 5 5 5 4 4 4 4 4
3 3 5 6 4 4 5 4 6 6 6 7 6 6 5 3 4 4 3 3 2 1 0 1 2 2 1 1 1 1 2 4 6 5 5 4 4 4 4 4 3 2 3 4
Wind_Direction
174 193 205 202 202 203 178 185 202 211 203 194 220 236 246 244 234 234 232 226 222 224 225 215 210 207 203 199 197 197 197 196 190 190 194 196 203 202 201 202 200 198 197 194
180 214 210 194 194 200 200 208 212 228 213 203 232 244 245 240 232 229 229 228 226 229 229 219 211 205 203 202 200 199 199 197 195 198 199 200 198 202 207 205 204 202 201 198
206 206 182 182 191 201 211 212 206 204 205 232 256 269 247 246 234 238 233 227 225 222 222 219 211 207 204 205 203 201 200 199 198 195 184 176 179 190 201 209 212 209 204 202
215 200 175 188 199 198 219 207 199 198 188 226 198 259 252 234 239 236 235 230 229 227 224 219 212 209 207 208 204 203 201 200 198 192 188 189 199 208 211 209 210 207 206 207
206 186 185 199 202 193 202 173 191 204 207 233 219 246 261 219 234 235 231 230 231 229 224 221 215 212 210 207 203 203 201 201 197 195 197 199 208 215 211 202 205 208 209 211
212 187 193 201 195 186 150 136 163 194 210 234 220 222 258 211 220 225 226 229 230 230 228 225 221 214 212 207 203 200 200 203 199 198 200 203 210 211 204 205 209 211 211 212
204 205 200 165 163 174 173 163 190 203 212 232 198 213 248 211 210 210 218 226 229 227 225 223 219 214 211 205 203 201 201 205 201 200 204 207 212 211 212 212 213 211 212 214
198 206 195 187 186 186 194 189 196 203 208 226 184 222 246 212 218 219 223 228 232 230 225 222 218 213 210 207 204 202 203 207 203 203 207 210 212 213 217 217 215 214 216 218
200 218 186 194 177 173 187 204 205 183 160 212 225 256 288 237 233 231 230 230 231 229 223 222 219 214 212 208 206 203 204 207 206 206 208 211 212 214 217 216 216 217 219 216
183 210 194 183 165 198 190 175 174 198 193 223 238 232 233 209 214 222 226 226 228 227 225 225 221 216 213 212 209 205 206 208 208 207 209 212 213 215 217 215 215 217 216 212
188 198 193 179 194 193 179 189 189 195 201 202 233 246 217 203 202 211 221 222 222 221 222 223 223 219 214 210 205 204 207 209 210 209 210 212 214 215 215 217 219 219 216 211
187 189 213 212 211 200 197 200 194 201 206 205 226 255 217 207 209 210 217 222 222 223 222 223 222 217 211 208 205 204 206 209 211 208 208 213 215 213 216 220 221 217 216 214
174 186 194 208 214 201 209 208 208 214 201 202 216 253 233 213 226 224 223 227 227 227 227 225 219 215 213 211 209 207 206 208 206 201 205 211 213 214 218 221 220 215 215 214
184 203 206 211 202 189 202 208 207 207 217 222 225 245 249 228 226 231 229 231 230 229 226 222 223 224 221 216 211 208 211 205 198 195 203 212 215 216 220 220 218 216 214 214
199 215 218 239 235 197 208 209 208 215 220 223 231 238 245 233 226 227 225 226 228 233 232 228 227 228 225 221 219 214 213 204 192 194 206 217 216 214 215 216 217 215 214 215
201 214 215 235 229 219 223 216 215 220 222 228 239 247 246 242 228 230 228 222 227 231 231 233 234 232 230 225 221 215 216 206 187 198 212 211 204 205 210 213 211 210 214 213
201 191 203 233 222 213 227 213 213 218 219 220 229 239 243 230 221 222 222 222 226 228 227 228 230 228 228 226 216 213 212 193 187 200 205 199 195 204 211 206 203 208 209 204
204 199 210 219 198 226 235 210 209 222 227 224 231 241 237 233 231 226 218 221 232 233 231 232 231 230 229 225 216 207 189 182 189 197 202 198 193 203 203 200 208 209 200 200
203 196 204 207 225 252 268 213 197 209 232 224 229 239 245 243 257 252 227 223 229 231 230 229 227 225 225 221 208 189 190 187 191 203 206 200 193 194 194 203 208 201 195 203
201 198 202 208 214 230 236 217 192 195 246 232 224 235 240 221 233 249 229 222 234 235 231 228 228 224 225 224 186 180 196 194 206 210 205 194 186 189 195 199 196 186 187 197
183 198 210 217 226 246 250 206 147 192 234 233 220 230 233 222 231 250 227 221 227 229 229 223 216 218 226 212 176 190 198 211 213 194 183 182 184 188 188 179 173 170 172 173
189 193 205 204 217 241 237 167 184 222 243 237 225 228 234 241 245 249 239 229 228 232 231 220 213 225 230 199 181 197 213 215 181 167 171 178 179 174 170 167 167 166 169 177
206 201 195 204 221 241 215 203 249 291 270 273 264 255 245 248 248 249 246 240 234 229 228 219 209 220 230 202 185 203 218 180 162 163 171 171 167 169 168 172 174 172 177 186
246 245 209 229 249 264 281 296 315 317 300 299 295 284 271 257 256 255 255 253 248 241 230 216 199 208 224 203 189 210 195 159 157 168 172 167 169 170 170 175 179 182 186 191
234 225 227 243 264 290 296 302 313 325 329 330 330 317 299 283 277 266 269 270 261 251 239 193 191 197 209 169 162 182 161 150 160 168 166 166 171 169 172 178 187 188 192 191
234 224 227 244 260 257 275 315 326 317 320 323 325 327 329 307 282 286 284 282 273 258 131 137 157 164 178 149 157 170 158 157 161 165 169 172 172 169 168 168 165 163 160 167